#timestamp,LO_Frequency,Hit,StdDev 
1540872015.7,286046993.7,N
1540872035.5,286046995.4,N
1540872055.3,286046995.5,N
1540872075.2,286046995.0,N
1540872095.0,286046998.1,N
1540872095.9,286046998.1,N
1540872115.7,286047002.7,N
1540872135.6,286047002.5,N
1540872155.4,286047007.1,N
1540872175.3,286047011.1,N
1540872195.1,286047015.5,Y
1540872196.0,286047015.5,P
1540872215.8,286047018.7,N
1540872235.7,286047023.5,P
1540872255.5,286047026.6,Y
1540872275.4,286047009.3,P
1540872295.2,286047014.7,P
1540872315.0,286047021.7,P
1540872315.9,286047021.7,Y
1540872335.8,286047001.6,P
1540872355.6,286047002.0,N
1540872375.4,286047004.1,N
1540872395.3,286047008.7,N
1540872415.1,286047006.4,N
1540872435.9,286047005.6,N
1540872455.7,286047005.7,N
1540872475.5,286047004.6,N
1540872495.4,286047002.5,N
1540872515.2,286047001.0,N
1540872535.0,286047001.0,N
1540872535.9,286047001.0,N
1540872555.8,286047005.6,N
1540872575.6,286047006.1,N
1540872595.4,286047007.3,N
1540872615.3,286047006.4,N
1540872635.1,286047003.9,N
1540872655.9,286047007.1,N
1540872675.7,286047012.4,Y
1540872695.5,286047010.6,P
1540872715.4,286047014.3,P
1540872735.2,286047020.1,P
1540872755.0,286047016.0,N
1540872756.0,286047016.0,Y
1540872775.8,286047005.3,P
1540872795.6,286047004.8,N
1540872815.5,286047009.8,N
1540872835.3,286047011.9,Y
1540872855.1,286047006.4,P
1540872875.9,286047008.4,P
1540872895.7,286047014.8,P
1540872915.6,286047019.6,Y
1540872935.4,286047011.2,P
1540872955.2,286047010.9,P
1540872975.1,286047010.1,P
1540872976.0,286047010.1,Y
1540872995.8,286046998.5,P
1540873015.6,286046999.2,N
1540873035.5,286046997.8,N
1540873055.3,286046997.8,N
1540873075.2,286046993.7,N
1540873095.9,286046994.0,N
1540873115.7,286046994.5,N
1540873135.6,286046994.8,N
1540873155.4,286046993.4,N
1540873175.2,286046999.3,N
1540873195.1,286047003.7,N
1540873196.0,286047003.7,N
1540873215.8,286047002.4,N
1540873235.7,286046999.9,N
1540873255.5,286046998.6,N
1540873275.3,286047000.9,N
1540873295.2,286047002.7,N
1540873315.9,286047002.3,N
1540873335.7,286047004.2,N
1540873355.6,286047005.7,N
1540873375.4,286047002.1,N
1540873395.2,286047001.6,N
1540873415.1,286047000.4,N
1540873416.0,286047000.4,N
1540873435.8,286047003.3,N
1540873455.7,286047005.0,N
1540873475.5,286047008.0,N
1540873495.3,286047014.0,Y
1540873515.2,286047011.9,P
1540873535.0,286047011.1,N
1540873535.9,286047011.1,N
1540873555.7,286047014.6,Y
1540873575.6,286047013.1,P
1540873595.4,286047021.7,P
1540873615.3,286047021.0,P
1540873635.1,286047025.8,Y
1540873636.0,286047025.8,P
1540873655.8,286047010.3,N
1540873675.7,286047012.4,N
1540873695.5,286047009.8,N
1540873715.3,286047009.8,N
1540873735.2,286047009.0,N
1540873755.0,286047006.7,N
1540873755.9,286047006.7,N
1540873775.8,286047008.8,N
1540873795.6,286047004.9,N
1540873815.4,286047004.3,N
1540873835.3,286047001.2,N
1540873855.1,286047002.4,N
1540873875.8,286046995.3,N
1540873895.7,286046992.6,N
1540873915.5,286046986.9,N
1540873935.4,286046985.4,N
1540873955.2,286046985.6,N
1540873975.0,286046991.3,N
1540873975.9,286046991.3,N
1540873995.8,286046991.4,N
1540874015.6,286046991.3,N
1540874035.4,286046990.6,N
1540874055.3,286046990.4,N
1540874075.1,286046992.5,N
1540874095.9,286046989.6,N
1540874115.7,286046988.5,N
1540874135.5,286046987.4,N
1540874155.4,286046988.8,N
1540874175.2,286046985.2,N
1540874195.0,286046982.0,N
1540874195.9,286046982.0,N
1540874215.8,286046979.5,N
1540874235.6,286046978.6,N
1540874255.5,286046972.9,N
1540874275.3,286046973.1,N
1540874295.1,286046971.9,N
1540874315.9,286046966.3,Y
1540874335.7,286046975.2,P
1540874355.5,286046972.2,P
1540874375.4,286046970.1,P
1540874395.2,286046972.3,Y
1540874415.1,286046991.0,P
1540874416.0,286046991.0,N
1540874435.8,286046988.1,N
1540874455.6,286046987.7,N
1540874475.5,286046986.3,N
1540874495.3,286046986.2,N
1540874515.1,286046988.4,N
1540874535.9,286046982.4,Y
1540874555.7,286046993.6,P
1540874575.6,286046997.2,N
1540874595.4,286047000.4,N
1540874615.2,286046999.9,N
1540874635.1,286047000.9,N
1540874636.0,286047000.9,N
1540874655.8,286047001.0,N
1540874675.6,286046999.7,N
1540874695.5,286047000.3,N
1540874715.3,286046998.9,N
1540874735.2,286046997.6,N
1540874755.9,286046994.8,N
1540874775.7,286046993.0,N
1540874795.6,286046992.7,N
1540874815.4,286046991.2,N
1540874835.2,286046988.1,N
1540874855.1,286046982.5,Y
1540874856.0,286046982.5,P
1540874875.8,286046984.0,N
1540874895.7,286046982.2,N
1540874915.5,286046986.8,N
1540874935.3,286046986.4,N
1540874955.2,286046982.2,Y
1540874975.0,286046999.5,P
1540874975.9,286046999.5,N
1540874995.8,286047000.1,N
1540875015.6,286047002.5,N
1540875035.4,286047000.0,N
1540875055.3,286047000.0,N
1540875075.1,286047004.1,N
1540875095.8,286047007.3,N
1540875115.7,286047006.4,N
1540875135.5,286047010.1,N
1540875155.4,286047007.7,N
1540875175.2,286047008.3,N
1540875195.0,286047011.2,N
1540875195.9,286047011.2,N
1540875215.8,286047008.9,N
1540875235.6,286047008.4,N
1540875255.4,286047012.2,N
1540875275.3,286047017.0,N
1540875295.1,286047011.2,N
1540875315.8,286047013.4,N
1540875335.7,286047009.5,N
1540875355.5,286047006.3,N
1540875375.4,286047011.4,N
1540875395.2,286047015.7,N
1540875415.0,286047019.6,Y
1540875415.9,286047019.6,P
1540875435.8,286047018.4,N
1540875455.6,286047017.3,N
1540875475.5,286047018.3,Y
1540875495.3,286047001.8,P
1540875515.1,286047005.2,N
1540875535.9,286047006.2,N
1540875555.7,286047007.0,N
1540875575.5,286047007.3,N
1540875595.4,286047006.1,N
